| time (UTC) | temp C | wind direction | speed KPH | gust KPH | rain 1hr cm | rain 24hr cm | rain mn cm | humidity % | barometer mb |
| 20260906202525 | 33 | 152 | 27.4 | 38.6 | 0.00 | 0.10 | 0.10 | 38 | 1016.3 |
| 20260906202023 | 33 | 142 | 24.1 | 43.5 | 0.00 | 0.10 | 0.10 | 39 | 1016.4 |
| 20260906201555 | 33 | 163 | 29.0 | 43.5 | 0.00 | 0.10 | 0.10 | 39 | 1016.6 |
| 20260906201023 | 33 | 149 | 32.2 | 51.5 | 0.00 | 0.10 | 0.10 | 39 | 1016.6 |
| 20260906200526 | 34 | 163 | 30.6 | 51.5 | 0.00 | 0.10 | 0.10 | 39 | 1016.7 |
| 20260906200052 | 33 | 141 | 29.0 | 37.0 | 0.00 | 0.10 | 0.10 | 40 | 1016.9 |
| 20260906195523 | 33 | 133 | 27.4 | 41.8 | 0.00 | 0.10 | 0.10 | 39 | 1017.1 |
| 20260906195024 | 33 | 127 | 22.5 | 41.8 | 0.00 | 0.10 | 0.10 | 41 | 1017.1 |
| 20260906194547 | 33 | 136 | 22.5 | 43.5 | 0.00 | 0.10 | 0.10 | 41 | 1017.1 |
| 20260906194023 | 33 | 116 | 29.0 | 43.5 | 0.00 | 0.10 | 0.10 | 41 | 1017.3 |
| 20260906193529 | 33 | 134 | 27.4 | 38.6 | 0.00 | 0.10 | 0.10 | 41 | 1017.4 |
| 20260906193042 | 33 | 112 | 24.1 | 37.0 | 0.00 | 0.10 | 0.10 | 42 | 1017.5 |
| 20260906192524 | 32 | 138 | 25.7 | 40.2 | 0.00 | 0.10 | 0.10 | 42 | 1017.6 |
| 20260906192025 | 32 | 134 | 25.7 | 40.2 | 0.00 | 0.10 | 0.10 | 43 | 1017.6 |
| 20260906191603 | 32 | 122 | 22.5 | 38.6 | 0.00 | 0.10 | 0.10 | 44 | 1017.6 |
| 20260906191023 | 32 | 147 | 25.7 | 37.0 | 0.00 | 0.10 | 0.10 | 43 | 1017.7 |
| 20260906190524 | 32 | 109 | 27.4 | 38.6 | 0.00 | 0.10 | 0.10 | 43 | 1017.8 |
| 20260906190054 | 32 | 140 | 25.7 | 40.2 | 0.00 | 0.10 | 0.10 | 43 | 1017.9 |
| 20260906185523 | 32 | 133 | 25.7 | 40.2 | 0.00 | 0.10 | 0.10 | 44 | 1018.0 |
| 20260906185027 | 32 | 134 | 22.5 | 38.6 | 0.00 | 0.10 | 0.10 | 44 | 1018.2 |
| 20260906184551 | 32 | 115 | 25.7 | 37.0 | 0.00 | 0.10 | 0.10 | 44 | 1018.1 |
| 20260906184033 | 32 | 108 | 24.1 | 40.2 | 0.00 | 0.10 | 0.10 | 44 | 1018.3 |
| 20260906183524 | 31 | 104 | 22.5 | 40.2 | 0.00 | 0.10 | 0.10 | 46 | 1018.3 |
| 20260906183043 | 31 | 109 | 25.7 | 38.6 | 0.00 | 0.10 | 0.10 | 46 | 1018.5 |
| 20260906182525 | 31 | 123 | 27.4 | 40.2 | 0.00 | 0.10 | 0.10 | 46 | 1018.4 |
| 20260906182026 | 31 | 107 | 27.4 | 40.2 | 0.00 | 0.10 | 0.10 | 46 | 1018.5 |
| 20260906181553 | 31 | 113 | 29.0 | 38.6 | 0.00 | 0.10 | 0.10 | 47 | 1018.5 |
| 20260906181024 | 30 | 105 | 29.0 | 38.6 | 0.00 | 0.10 | 0.10 | 47 | 1018.8 |
| 20260906180524 | 30 | 98 | 27.4 | 37.0 | 0.00 | 0.10 | 0.10 | 49 | 1018.8 |
| 20260906180107 | 30 | 103 | 29.0 | 43.5 | 0.00 | 0.10 | 0.10 | 50 | 1018.9 |
| 20260906175525 | 30 | 105 | 29.0 | 43.5 | 0.00 | 0.10 | 0.10 | 52 | 1018.9 |
| 20260906175023 | 29 | 92 | 32.2 | 41.8 | 0.00 | 0.10 | 0.10 | 52 | 1019.0 |
| 20260906174557 | 29 | 109 | 25.7 | 37.0 | 0.00 | 0.10 | 0.10 | 54 | 1019.2 |
| 20260906174024 | 28 | 92 | 29.0 | 40.2 | 0.00 | 0.10 | 0.10 | 56 | 1019.3 |
| 20260906173529 | 28 | 91 | 29.0 | 41.8 | 0.00 | 0.10 | 0.10 | 57 | 1019.3 |
| 20260906173042 | 28 | 97 | 29.0 | 41.8 | 0.00 | 0.10 | 0.10 | 59 | 1019.7 |
| 20260906172524 | 27 | 77 | 30.6 | 43.5 | 0.00 | 0.10 | 0.10 | 60 | 1019.7 |
| 20260906172025 | 27 | 82 | 32.2 | 41.8 | 0.00 | 0.10 | 0.10 | 60 | 1019.5 |
| 20260906171554 | 27 | 88 | 29.0 | 40.2 | 0.00 | 0.10 | 0.10 | 61 | 1019.6 |
| 20260906171024 | 27 | 86 | 29.0 | 37.0 | 0.00 | 0.10 | 0.10 | 61 | 1020.0 |
| 20260906170524 | 27 | 82 | 30.6 | 35.4 | 0.00 | 0.10 | 0.10 | 61 | 1020.1 |
| 20260906170049 | 27 | 63 | 25.7 | 38.6 | 0.00 | 0.10 | 0.10 | 62 | 1020.3 |
| 20260906165523 | 27 | 80 | 27.4 | 40.2 | 0.00 | 0.10 | 0.10 | 62 | 1020.3 |
| 20260906165023 | 27 | 84 | 30.6 | 40.2 | 0.00 | 0.10 | 0.10 | 61 | 1020.0 |
| 20260906164547 | 27 | 84 | 29.0 | 40.2 | 0.00 | 0.10 | 0.10 | 62 | 1020.4 |
| 20260906164023 | 26 | 71 | 30.6 | 40.2 | 0.00 | 0.10 | 0.10 | 65 | 1020.4 |
| 20260906163523 | 26 | 75 | 27.4 | 37.0 | 0.00 | 0.10 | 0.10 | 66 | 1020.4 |
| 20260906163051 | 26 | 66 | 25.7 | 37.0 | 0.00 | 0.10 | 0.10 | 66 | 1020.4 |
| 20260906162524 | 26 | 70 | 25.7 | 37.0 | 0.00 | 0.10 | 0.10 | 68 | 1020.3 |
| 20260906162023 | 26 | 76 | 27.4 | 35.4 | 0.00 | 0.10 | 0.10 | 68 | 1020.3 |
| 20260906161553 | 25 | 78 | 22.5 | 35.4 | 0.00 | 0.10 | 0.10 | 70 | 1020.3 |
| 20260906161027 | 25 | 55 | 22.5 | 32.2 | 0.00 | 0.10 | 0.10 | 71 | 1020.3 |
| 20260906160524 | 25 | 68 | 24.1 | 37.0 | 0.00 | 0.10 | 0.10 | 71 | 1020.3 |
| 20260906160052 | 25 | 64 | 27.4 | 37.0 | 0.10 | 0.10 | 0.10 | 71 | 1020.5 |
| 20260906155524 | 25 | 64 | 24.1 | 35.4 | 0.10 | 0.10 | 0.10 | 71 | 1020.3 |
| 20260906155023 | 25 | 68 | 25.7 | 38.6 | 0.10 | 0.10 | 0.10 | 72 | 1020.4 |
| 20260906154551 | 25 | 58 | 25.7 | 38.6 | 0.10 | 0.10 | 0.10 | 72 | 1020.4 |
| 20260906154023 | 25 | 30 | 22.5 | 30.6 | 0.10 | 0.10 | 0.10 | 72 | 1020.4 |
| 20260906153524 | 24 | 58 | 20.9 | 30.6 | 0.10 | 0.10 | 0.10 | 73 | 1020.7 |
| 20260906153112 | 24 | 51 | 20.9 | 27.4 | 0.10 | 0.10 | 0.10 | 73 | 1020.7 |
| 20260906152524 | 24 | 55 | 17.7 | 27.4 | 0.10 | 0.10 | 0.10 | 73 | 1020.6 |
| 20260906152024 | 23 | 57 | 20.9 | 27.4 | 0.10 | 0.10 | 0.10 | 73 | 1020.6 |
| 20260906151600 | 23 | 49 | 17.7 | 30.6 | 0.10 | 0.10 | 0.10 | 72 | 1020.3 |
| 20260906151024 | 24 | 59 | 20.9 | 30.6 | 0.10 | 0.10 | 0.10 | 70 | 1020.4 |
| 20260906150524 | 25 | 46 | 19.3 | 25.7 | 0.10 | 0.10 | 0.10 | 67 | 1020.1 |
| 20260906150052 | 25 | 44 | 17.7 | 27.4 | 0.00 | 0.00 | 0.00 | 63 | 1020.2 |
| 20260906145525 | 25 | 51 | 20.9 | 27.4 | 0.00 | 0.00 | 0.00 | 63 | 1020.2 |
| 20260906145023 | 25 | 22 | 14.5 | 22.5 | 0.00 | 0.00 | 0.00 | 62 | 1020.1 |
| 20260906144545 | 25 | 53 | 14.5 | 19.3 | 0.00 | 0.00 | 0.00 | 62 | 1019.7 |
| 20260906144024 | 25 | 88 | 12.9 | 19.3 | 0.00 | 0.00 | 0.00 | 62 | 1019.6 |
| 20260906143524 | 25 | 97 | 14.5 | 19.3 | 0.00 | 0.00 | 0.00 | 63 | 1019.4 |
| 20260906143047 | 25 | 108 | 12.9 | 19.3 | 0.00 | 0.00 | 0.00 | 65 | 1019.3 |
| 20260906142521 | 25 | 119 | 11.3 | 17.7 | 0.00 | 0.00 | 0.00 | 67 | 1019.3 |
| 20260906142026 | 25 | 113 | 12.9 | 17.7 | 0.00 | 0.00 | 0.00 | 68 | 1019.2 |
| 20260906141553 | 24 | 121 | 11.3 | 16.1 | 0.00 | 0.00 | 0.00 | 70 | 1019.2 |
| 20260906141024 | 24 | 121 | 11.3 | 14.5 | 0.00 | 0.00 | 0.00 | 71 | 1019.3 |
| 20260906140525 | 23 | 111 | 11.3 | 14.5 | 0.00 | 0.00 | 0.00 | 72 | 1019.2 |
| 20260906140047 | 23 | 114 | 9.7 | 14.5 | 0.00 | 0.00 | 0.00 | 73 | 1019.2 |
| 20260906135528 | 23 | 113 | 9.7 | 14.5 | 0.00 | 0.00 | 0.00 | 74 | 1019.1 |
| 20260906135023 | 23 | 121 | 9.7 | 16.1 | 0.00 | 0.00 | 0.00 | 74 | 1019.1 |
| 20260906134606 | 23 | 123 | 9.7 | 16.1 | 0.00 | 0.00 | 0.00 | 75 | 1018.9 |
| 20260906134023 | 23 | 128 | 11.3 | 16.1 | 0.00 | 0.00 | 0.00 | 75 | 1018.9 |
| 20260906133525 | 22 | 117 | 11.3 | 16.1 | 0.00 | 0.00 | 0.00 | 76 | 1018.8 |
| 20260906133056 | 22 | 110 | 11.3 | 16.1 | 0.00 | 0.00 | 0.00 | 78 | 1018.7 |
| 20260906132524 | 22 | 105 | 9.7 | 12.9 | 0.00 | 0.00 | 0.00 | 79 | 1018.6 |
| 20260906132024 | 21 | 112 | 6.4 | 11.3 | 0.00 | 0.00 | 0.00 | 79 | 1018.7 |
| 20260906131555 | 21 | 114 | 4.8 | 11.3 | 0.00 | 0.00 | 0.00 | 80 | 1018.6 |
| 20260906131025 | 21 | 116 | 6.4 | 11.3 | 0.00 | 0.00 | 0.00 | 80 | 1018.5 |
| 20260906130524 | 21 | 106 | 8.0 | 11.3 | 0.00 | 0.00 | 0.00 | 80 | 1018.4 |
| 20260906130049 | 21 | 106 | 8.0 | 11.3 | 0.00 | 0.00 | 0.00 | 80 | 1018.4 |
| 20260906125525 | 21 | 121 | 4.8 | 9.7 | 0.00 | 0.00 | 0.00 | 81 | 1018.4 |
| 20260906125026 | 20 | 121 | 4.8 | 9.7 | 0.00 | 0.00 | 0.00 | 81 | 1018.2 |
| 20260906124544 | 20 | 121 | 6.4 | 11.3 | 0.00 | 0.00 | 0.00 | 81 | 1018.1 |
| 20260906124025 | 20 | 122 | 6.4 | 11.3 | 0.00 | 0.00 | 0.00 | 81 | 1018.0 |
| 20260906123525 | 20 | 113 | 6.4 | 9.7 | 0.00 | 0.00 | 0.00 | 81 | 1017.9 |
| 20260906123058 | 20 | 113 | 6.4 | 9.7 | 0.00 | 0.00 | 0.00 | 81 | 1017.9 |
| 20260906122524 | 20 | 113 | 6.4 | 9.7 | 0.00 | 0.00 | 0.00 | 81 | 1017.8 |
| 20260906122024 | 20 | 114 | 4.8 | 9.7 | 0.00 | 0.00 | 0.00 | 80 | 1017.8 |
| 20260906121552 | 20 | 114 | 4.8 | 9.7 | 0.00 | 0.00 | 0.00 | 81 | 1017.7 |
| 20260906121025 | 21 | 114 | 6.4 | 11.3 | 0.00 | 0.00 | 0.00 | 81 | 1017.6 |
| 20260906120524 | 21 | 114 | 4.8 | 11.3 | 0.00 | 0.00 | 0.00 | 81 | 1017.6 |
| 20260906120051 | 20 | 114 | 8.0 | 11.3 | 0.00 | 0.00 | 0.00 | 81 | 1017.6 |
| 20260906115523 | 20 | 111 | 8.0 | 11.3 | 0.00 | 0.00 | 0.00 | 81 | 1017.5 |
| 20260906115024 | 20 | 112 | 8.0 | 11.3 | 0.00 | 0.00 | 0.00 | 81 | 1017.5 |
| 20260906114555 | 20 | 115 | 8.0 | 11.3 | 0.00 | 0.00 | 0.00 | 81 | 1017.6 |
| 20260906114025 | 20 | 119 | 6.4 | 9.7 | 0.00 | 0.00 | 0.00 | 80 | 1017.6 |
| 20260906113524 | 21 | 131 | 4.8 | 8.0 | 0.00 | 0.00 | 0.00 | 80 | 1017.5 |
| 20260906113044 | 21 | 136 | 3.2 | 11.3 | 0.00 | 0.00 | 0.00 | 80 | 1017.5 |
| 20260906112529 | 21 | 136 | 3.2 | 11.3 | 0.00 | 0.00 | 0.00 | 79 | 1017.4 |
| 20260906112023 | 21 | 136 | 8.0 | 11.3 | 0.00 | 0.00 | 0.00 | 79 | 1017.3 |
| 20260906111552 | 21 | 136 | 4.8 | 11.3 | 0.00 | 0.00 | 0.00 | 79 | 1017.3 |
| 20260906111024 | 21 | 136 | 6.4 | 11.3 | 0.00 | 0.00 | 0.00 | 79 | 1017.4 |
| 20260906110524 | 21 | 135 | 8.0 | 11.3 | 0.00 | 0.00 | 0.00 | 79 | 1017.4 |
| 20260906110053 | 21 | 136 | 6.4 | 8.0 | 0.00 | 0.00 | 0.00 | 79 | 1017.4 |
| 20260906105524 | 21 | 136 | 6.4 | 8.0 | 0.00 | 0.00 | 0.00 | 78 | 1017.3 |
| 20260906105024 | 21 | 136 | 4.8 | 9.7 | 0.00 | 0.00 | 0.00 | 78 | 1017.3 |
| 20260906104545 | 21 | 119 | 4.8 | 11.3 | 0.00 | 0.00 | 0.00 | 78 | 1017.1 |
| 20260906104026 | 21 | 119 | 6.4 | 11.3 | 0.00 | 0.00 | 0.00 | 78 | 1017.2 |
| 20260906103524 | 21 | 120 | 8.0 | 11.3 | 0.00 | 0.00 | 0.00 | 78 | 1017.1 |
| 20260906103103 | 21 | 135 | 6.4 | 8.0 | 0.00 | 0.00 | 0.00 | 78 | 1017.1 |
| 20260906102523 | 21 | 146 | 4.8 | 6.4 | 0.00 | 0.00 | 0.00 | 78 | 1017.1 |
| 20260906102026 | 21 | 146 | 3.2 | 4.8 | 0.00 | 0.00 | 0.00 | 78 | 1017.1 |
| 20260906101554 | 21 | 146 | 1.6 | 4.8 | 0.00 | 0.00 | 0.00 | 78 | 1017.0 |
| 20260906101023 | 21 | 146 | 1.6 | 4.8 | 0.00 | 0.00 | 0.00 | 77 | 1017.1 |
| 20260906100524 | 21 | 146 | 1.6 | 6.4 | 0.00 | 0.00 | 0.00 | 77 | 1017.1 |
| 20260906100046 | 21 | 146 | 3.2 | 6.4 | 0.00 | 0.00 | 0.00 | 77 | 1017.1 |
| 20260906095524 | 21 | 146 | 3.2 | 8.0 | 0.00 | 0.00 | 0.00 | 77 | 1017.0 |
| 20260906095024 | 22 | 146 | 4.8 | 11.3 | 0.00 | 0.00 | 0.00 | 77 | 1017.0 |
| 20260906094553 | 22 | 144 | 4.8 | 11.3 | 0.00 | 0.00 | 0.00 | 76 | 1017.0 |
| 20260906094024 | 22 | 144 | 6.4 | 11.3 | 0.00 | 0.00 | 0.00 | 76 | 1017.1 |
| 20260906093527 | 22 | 144 | 6.4 | 11.3 | 0.00 | 0.00 | 0.00 | 76 | 1017.0 |
| 20260906093059 | 22 | 144 | 6.4 | 11.3 | 0.00 | 0.00 | 0.00 | 75 | 1017.2 |
| 20260906092524 | 22 | 144 | 8.0 | 11.3 | 0.00 | 0.00 | 0.00 | 75 | 1017.1 |
| 20260906092031 | 22 | 146 | 6.4 | 11.3 | 0.00 | 0.00 | 0.00 | 75 | 1017.1 |
| 20260906091553 | 22 | 146 | 6.4 | 11.3 | 0.00 | 0.00 | 0.00 | 74 | 1017.0 |
| 20260906091024 | 22 | 146 | 6.4 | 11.3 | 0.00 | 0.00 | 0.00 | 74 | 1017.1 |
| 20260906090523 | 22 | 146 | 6.4 | 11.3 | 0.00 | 0.00 | 0.00 | 74 | 1017.1 |
| 20260906090101 | 22 | 135 | 6.4 | 9.7 | 0.00 | 0.00 | 0.00 | 73 | 1017.1 |
| 20260906085524 | 23 | 135 | 6.4 | 9.7 | 0.00 | 0.00 | 0.00 | 72 | 1017.2 |
| 20260906085023 | 23 | 168 | 4.8 | 11.3 | 0.00 | 0.00 | 0.00 | 72 | 1017.2 |
| 20260906084542 | 23 | 168 | 4.8 | 11.3 | 0.00 | 0.00 | 0.00 | 72 | 1017.1 |
| 20260906084022 | 23 | 168 | 6.4 | 9.7 | 0.00 | 0.00 | 0.00 | 72 | 1017.2 |
| 20260906083524 | 23 | 168 | 8.0 | 9.7 | 0.00 | 0.00 | 0.00 | 72 | 1017.3 |
| 20260906083052 | 23 | 178 | 6.4 | 9.7 | 0.00 | 0.00 | 0.00 | 72 | 1017.1 |
| 20260906082524 | 23 | 190 | 6.4 | 9.7 | 0.00 | 0.00 | 0.00 | 71 | 1017.1 |
| 20260906082027 | 23 | 188 | 4.8 | 8.0 | 0.00 | 0.00 | 0.00 | 71 | 1017.2 |
| 20260906081554 | 23 | 188 | 3.2 | 8.0 | 0.00 | 0.00 | 0.00 | 70 | 1017.2 |
| 20260906081024 | 23 | 188 | 4.8 | 8.0 | 0.00 | 0.00 | 0.00 | 70 | 1017.3 |
| 20260906080524 | 23 | 188 | 4.8 | 8.0 | 0.00 | 0.00 | 0.00 | 70 | 1017.4 |
| 20260906080055 | 23 | 188 | 4.8 | 9.7 | 0.00 | 0.00 | 0.00 | 69 | 1017.5 |
| 20260906075524 | 23 | 188 | 6.4 | 9.7 | 0.00 | 0.00 | 0.00 | 69 | 1017.5 |
| 20260906075026 | 23 | 183 | 6.4 | 9.7 | 0.00 | 0.00 | 0.00 | 70 | 1017.5 |
| 20260906074553 | 23 | 167 | 6.4 | 8.0 | 0.00 | 0.00 | 0.00 | 69 | 1017.6 |
| 20260906074024 | 23 | 167 | 4.8 | 6.4 | 0.00 | 0.00 | 0.00 | 69 | 1017.6 |
| 20260906073523 | 23 | 167 | 1.6 | 4.8 | 0.00 | 0.00 | 0.00 | 68 | 1017.6 |
| 20260906073106 | 23 | 167 | 3.2 | 4.8 | 0.00 | 0.00 | 0.00 | 68 | 1017.6 |
| 20260906072524 | 23 | 167 | 3.2 | 8.0 | 0.00 | 0.00 | 0.00 | 68 | 1017.4 |
| 20260906072027 | 23 | 166 | 4.8 | 9.7 | 0.00 | 0.00 | 0.00 | 68 | 1017.4 |
| 20260906071552 | 23 | 166 | 6.4 | 9.7 | 0.00 | 0.00 | 0.00 | 68 | 1017.3 |
| 20260906071026 | 23 | 166 | 6.4 | 9.7 | 0.00 | 0.00 | 0.00 | 69 | 1017.3 |
| 20260906070524 | 23 | 167 | 6.4 | 9.7 | 0.00 | 0.00 | 0.00 | 69 | 1017.4 |
| 20260906070050 | 23 | 166 | 6.4 | 12.9 | 0.00 | 0.00 | 0.00 | 69 | 1017.5 |
| 20260906065523 | 23 | 166 | 9.7 | 12.9 | 0.00 | 0.00 | 0.00 | 70 | 1017.6 |
| 20260906065025 | 23 | 155 | 4.8 | 9.7 | 0.00 | 0.00 | 0.00 | 70 | 1017.5 |
| 20260906064543 | 23 | 136 | 4.8 | 6.4 | 0.00 | 0.00 | 0.00 | 69 | 1017.6 |
| 20260906064027 | 23 | 136 | 3.2 | 6.4 | 0.00 | 0.00 | 0.00 | 69 | 1017.5 |
| 20260906063526 | 23 | 135 | 3.2 | 11.3 | 0.00 | 0.00 | 0.00 | 68 | 1017.6 |
| 20260906063054 | 23 | 135 | 4.8 | 11.3 | 0.00 | 0.00 | 0.00 | 68 | 1017.6 |
| 20260906062523 | 23 | 135 | 6.4 | 11.3 | 0.00 | 0.00 | 0.00 | 69 | 1017.6 |
| 20260906062023 | 23 | 186 | 4.8 | 11.3 | 0.00 | 0.00 | 0.00 | 69 | 1017.7 |
| 20260906061552 | 23 | 186 | 6.4 | 14.5 | 0.00 | 0.00 | 0.00 | 69 | 1017.7 |
| 20260906061024 | 23 | 157 | 9.7 | 14.5 | 0.00 | 0.00 | 0.00 | 68 | 1017.7 |
| 20260906060523 | 23 | 137 | 8.0 | 12.9 | 0.00 | 0.00 | 0.00 | 68 | 1017.7 |
| 20260906060049 | 23 | 148 | 8.0 | 14.5 | 0.00 | 0.00 | 0.00 | 68 | 1017.6 |
| 20260906055526 | 23 | 148 | 9.7 | 14.5 | 0.00 | 0.00 | 0.00 | 68 | 1017.7 |
| 20260906055024 | 23 | 144 | 11.3 | 16.1 | 0.00 | 0.00 | 0.00 | 68 | 1017.6 |
| 20260906054544 | 23 | 132 | 11.3 | 16.1 | 0.00 | 0.00 | 0.00 | 67 | 1017.4 |
| 20260906054024 | 23 | 142 | 9.7 | 14.5 | 0.00 | 0.00 | 0.00 | 67 | 1017.3 |
| 20260906053523 | 23 | 128 | 9.7 | 14.5 | 0.00 | 0.00 | 0.00 | 68 | 1017.4 |
| 20260906053054 | 23 | 130 | 9.7 | 12.9 | 0.00 | 0.00 | 0.00 | 67 | 1017.3 |
| 20260906052528 | 23 | 123 | 8.0 | 11.3 | 0.00 | 0.00 | 0.00 | 67 | 1017.1 |
| 20260906052024 | 23 | 123 | 6.4 | 11.3 | 0.00 | 0.00 | 0.00 | 67 | 1017.1 |
| 20260906051601 | 23 | 132 | 6.4 | 12.9 | 0.00 | 0.00 | 0.00 | 67 | 1017.1 |
| 20260906051024 | 23 | 136 | 6.4 | 12.9 | 0.00 | 0.00 | 0.00 | 67 | 1017.0 |
| 20260906050523 | 23 | 133 | 8.0 | 14.5 | 0.00 | 0.00 | 0.00 | 66 | 1016.9 |
| 20260906045526 | 23 | 146 | 11.3 | 16.1 | 0.00 | 0.00 | 0.00 | 65 | 1016.7 |
| 20260906045024 | 23 | 134 | 9.7 | 14.5 | 0.00 | 0.00 | 0.00 | 66 | 1016.6 |
| 20260906044555 | 23 | 130 | 9.7 | 12.9 | 0.00 | 0.00 | 0.00 | 65 | 1016.5 |
| 20260906044025 | 23 | 134 | 9.7 | 12.9 | 0.00 | 0.00 | 0.00 | 65 | 1016.6 |
| 20260906043527 | 24 | 128 | 8.0 | 12.9 | 0.00 | 0.00 | 0.00 | 65 | 1016.6 |
| 20260906043058 | 24 | 122 | 6.4 | 11.3 | 0.00 | 0.00 | 0.00 | 64 | 1016.5 |
| 20260906042523 | 24 | 123 | 8.0 | 14.5 | 0.00 | 0.00 | 0.00 | 64 | 1016.6 |
| 20260906042024 | 24 | 115 | 8.0 | 14.5 | 0.00 | 0.00 | 0.00 | 63 | 1016.5 |
| 20260906041549 | 25 | 115 | 11.3 | 16.1 | 0.00 | 0.00 | 0.00 | 63 | 1016.4 |
| 20260906041025 | 25 | 120 | 11.3 | 14.5 | 0.00 | 0.00 | 0.00 | 63 | 1016.5 |
| 20260906040524 | 25 | 111 | 9.7 | 12.9 | 0.00 | 0.00 | 0.00 | 63 | 1016.5 |
| 20260906040048 | 25 | 112 | 9.7 | 12.9 | 0.00 | 0.00 | 0.00 | 62 | 1016.6 |
| 20260906035525 | 25 | 121 | 8.0 | 12.9 | 0.00 | 0.00 | 0.00 | 62 | 1016.7 |
| 20260906035023 | 25 | 132 | 9.7 | 12.9 | 0.00 | 0.00 | 0.00 | 62 | 1016.7 |
| 20260906034617 | 25 | 128 | 8.0 | 14.5 | 0.00 | 0.00 | 0.00 | 61 | 1016.6 |
| 20260906034028 | 25 | 126 | 9.7 | 14.5 | 0.00 | 0.00 | 0.00 | 61 | 1016.5 |
| 20260906033524 | 25 | 134 | 9.7 | 16.1 | 0.00 | 0.00 | 0.00 | 60 | 1016.5 |
| 20260906033054 | 25 | 130 | 9.7 | 16.1 | 0.00 | 0.00 | 0.00 | 60 | 1016.4 |
| 20260906032523 | 26 | 132 | 11.3 | 16.1 | 0.00 | 0.00 | 0.00 | 60 | 1016.4 |
| 20260906032025 | 26 | 128 | 11.3 | 17.7 | 0.00 | 0.00 | 0.00 | 59 | 1016.5 |
| 20260906031552 | 26 | 121 | 11.3 | 17.7 | 0.00 | 0.00 | 0.00 | 59 | 1016.6 |
| 20260906031024 | 26 | 123 | 11.3 | 19.3 | 0.00 | 0.00 | 0.00 | 58 | 1016.5 |
| 20260906030526 | 26 | 129 | 12.9 | 19.3 | 0.00 | 0.00 | 0.00 | 58 | 1016.3 |
| 20260906030055 | 26 | 138 | 14.5 | 22.5 | 0.00 | 0.00 | 0.00 | 58 | 1016.4 |
| 20260906025526 | 26 | 138 | 16.1 | 25.7 | 0.00 | 0.00 | 0.00 | 58 | 1016.3 |
| 20260906025025 | 26 | 128 | 17.7 | 25.7 | 0.00 | 0.00 | 0.00 | 58 | 1016.4 |
| 20260906024553 | 26 | 132 | 17.7 | 29.0 | 0.00 | 0.00 | 0.00 | 59 | 1016.6 |
| 20260906024024 | 26 | 114 | 17.7 | 29.0 | 0.00 | 0.00 | 0.00 | 59 | 1016.6 |
| 20260906023525 | 26 | 131 | 20.9 | 25.7 | 0.00 | 0.00 | 0.00 | 59 | 1016.5 |
| 20260906023050 | 26 | 134 | 17.7 | 29.0 | 0.00 | 0.00 | 0.00 | 59 | 1016.2 |
| 20260906022528 | 26 | 129 | 19.3 | 32.2 | 0.00 | 0.00 | 0.00 | 59 | 1016.3 |
| 20260906022024 | 26 | 109 | 24.1 | 32.2 | 0.00 | 0.00 | 0.00 | 58 | 1016.3 |
| 20260906021553 | 26 | 119 | 22.5 | 29.0 | 0.00 | 0.00 | 0.00 | 58 | 1016.2 |
| 20260906021024 | 27 | 119 | 20.9 | 29.0 | 0.00 | 0.00 | 0.00 | 58 | 1016.0 |
| 20260906020524 | 27 | 131 | 20.9 | 29.0 | 0.00 | 0.00 | 0.00 | 58 | 1016.0 |
| 20260906020059 | 27 | 106 | 22.5 | 30.6 | 0.00 | 0.00 | 0.00 | 58 | 1016.0 |
| 20260906015527 | 27 | 109 | 20.9 | 30.6 | 0.00 | 0.00 | 0.00 | 58 | 1015.9 |
| 20260906015025 | 27 | 116 | 20.9 | 30.6 | 0.00 | 0.00 | 0.00 | 58 | 1015.7 |
| 20260906014547 | 27 | 105 | 24.1 | 30.6 | 0.00 | 0.00 | 0.00 | 58 | 1015.5 |
| 20260906014038 | 27 | 119 | 22.5 | 37.0 | 0.00 | 0.00 | 0.00 | 58 | 1015.3 |
| 20260906013525 | 27 | 127 | 24.1 | 37.0 | 0.00 | 0.00 | 0.00 | 58 | 1015.2 |
| 20260906013100 | 27 | 110 | 25.7 | 37.0 | 0.00 | 0.00 | 0.00 | 57 | 1015.1 |
| 20260906012523 | 27 | 104 | 24.1 | 32.2 | 0.00 | 0.00 | 0.00 | 55 | 1015.2 |
| 20260906012023 | 28 | 115 | 22.5 | 30.6 | 0.00 | 0.00 | 0.00 | 55 | 1015.2 |
| 20260906011555 | 28 | 105 | 22.5 | 30.6 | 0.00 | 0.00 | 0.00 | 54 | 1015.2 |
| 20260906011027 | 28 | 103 | 19.3 | 30.6 | 0.00 | 0.00 | 0.00 | 53 | 1015.4 |
| 20260906010527 | 28 | 108 | 20.9 | 30.6 | 0.00 | 0.00 | 0.00 | 52 | 1015.4 |
| 20260906010055 | 28 | 99 | 20.9 | 30.6 | 0.00 | 0.00 | 0.00 | 51 | 1015.5 |
| 20260906005523 | 29 | 110 | 24.1 | 38.6 | 0.00 | 0.00 | 0.00 | 50 | 1015.5 |
| 20260906005025 | 29 | 104 | 25.7 | 38.6 | 0.00 | 0.00 | 0.00 | 49 | 1015.6 |
| 20260906004548 | 30 | 94 | 27.4 | 37.0 | 0.00 | 0.00 | 0.00 | 48 | 1015.7 |
| 20260906004027 | 30 | 92 | 24.1 | 35.4 | 0.00 | 0.00 | 0.00 | 47 | 1015.6 |
| 20260906003524 | 30 | 93 | 25.7 | 37.0 | 0.00 | 0.00 | 0.00 | 46 | 1015.3 |
| 20260906003046 | 31 | 89 | 25.7 | 37.0 | 0.00 | 0.00 | 0.00 | 46 | 1015.4 |
| 20260906002522 | 31 | 94 | 20.9 | 32.2 | 0.00 | 0.00 | 0.00 | 44 | 1015.4 |
| 20260906002024 | 32 | 90 | 24.1 | 32.2 | 0.00 | 0.00 | 0.00 | 42 | 1015.5 |
| 20260906001553 | 33 | 132 | 12.9 | 19.3 | 0.00 | 0.00 | 0.00 | 40 | 1015.6 |
| 20260906001024 | 33 | 153 | 14.5 | 22.5 | 0.00 | 0.00 | 0.00 | 39 | 1015.4 |
| 20260906000525 | 34 | 150 | 14.5 | 25.7 | 0.00 | 0.00 | 0.00 | 38 | 1015.3 |
| 20260906000104 | 34 | 143 | 17.7 | 25.7 | 0.00 | 0.00 | 0.00 | 38 | 1015.2 |
| 20260905235525 | 35 | 149 | 14.5 | 22.5 | 0.00 | 0.00 | 0.00 | 37 | 1015.3 |
| 20260905235024 | 35 | 138 | 16.1 | 20.9 | 0.00 | 0.00 | 0.00 | 35 | 1015.1 |
| 20260905234556 | 35 | 148 | 14.5 | 19.3 | 0.00 | 0.00 | 0.00 | 35 | 1015.2 |
| 20260905234025 | 35 | 154 | 16.1 | 19.3 | 0.00 | 0.00 | 0.00 | 35 | 1015.2 |
| 20260905233527 | 35 | 136 | 14.5 | 22.5 | 0.00 | 0.00 | 0.00 | 36 | 1015.3 |
| 20260905233045 | 35 | 142 | 14.5 | 22.5 | 0.00 | 0.00 | 0.00 | 36 | 1015.3 |
| 20260905232524 | 35 | 150 | 14.5 | 22.5 | 0.00 | 0.00 | 0.00 | 37 | 1015.3 |
| 20260905232024 | 35 | 140 | 12.9 | 24.1 | 0.00 | 0.00 | 0.00 | 37 | 1015.1 |
| 20260905231555 | 35 | 148 | 14.5 | 24.1 | 0.00 | 0.00 | 0.00 | 36 | 1015.1 |
| 20260905231025 | 35 | 150 | 17.7 | 27.4 | 0.00 | 0.00 | 0.00 | 36 | 1015.0 |
| 20260905230525 | 35 | 167 | 17.7 | 27.4 | 0.00 | 0.00 | 0.00 | 36 | 1014.9 |
| 20260905225526 | 35 | 178 | 17.7 | 32.2 | 0.00 | 0.00 | 0.00 | 36 | 1014.8 |
| 20260905225023 | 35 | 178 | 24.1 | 32.2 | 0.00 | 0.00 | 0.00 | 36 | 1014.5 |
| 20260905224542 | 35 | 164 | 22.5 | 37.0 | 0.00 | 0.00 | 0.00 | 36 | 1014.5 |
| 20260905224024 | 35 | 171 | 22.5 | 37.0 | 0.00 | 0.00 | 0.00 | 36 | 1014.5 |
| 20260905223523 | 35 | 196 | 20.9 | 35.4 | 0.00 | 0.00 | 0.00 | 36 | 1014.5 |
| 20260905223055 | 35 | 159 | 25.7 | 35.4 | 0.00 | 0.00 | 0.00 | 35 | 1014.5 |
| 20260905222530 | 35 | 200 | 19.3 | 33.8 | 0.00 | 0.00 | 0.00 | 36 | 1014.5 |
| 20260905222024 | 36 | 182 | 22.5 | 35.4 | 0.00 | 0.00 | 0.00 | 34 | 1014.4 |
| 20260905221551 | 36 | 163 | 25.7 | 37.0 | 0.00 | 0.00 | 0.00 | 34 | 1014.4 |
| 20260905221030 | 36 | 161 | 25.7 | 37.0 | 0.00 | 0.00 | 0.00 | 34 | 1014.5 |
| 20260905220528 | 36 | 140 | 20.9 | 32.2 | 0.00 | 0.00 | 0.00 | 33 | 1014.5 |
| 20260905220051 | 36 | 156 | 20.9 | 41.8 | 0.00 | 0.00 | 0.00 | 33 | 1014.5 |
| 20260905215526 | 36 | 157 | 22.5 | 43.5 | 0.00 | 0.00 | 0.00 | 33 | 1014.4 |
| 20260905215025 | 36 | 196 | 24.1 | 43.5 | 0.00 | 0.00 | 0.00 | 33 | 1014.3 |
| 20260905214553 | 36 | 174 | 19.3 | 35.4 | 0.00 | 0.00 | 0.00 | 34 | 1014.5 |
| 20260905214024 | 36 | 128 | 25.7 | 35.4 | 0.00 | 0.00 | 0.00 | 33 | 1014.4 |
| 20260905213525 | 36 | 130 | 20.9 | 29.0 | 0.00 | 0.00 | 0.00 | 34 | 1014.5 |
| 20260905213052 | 36 | 135 | 20.9 | 29.0 | 0.00 | 0.00 | 0.00 | 35 | 1014.5 |
| 20260905212526 | 35 | 148 | 17.7 | 46.7 | 0.00 | 0.00 | 0.00 | 34 | 1014.5 |
| 20260905212024 | 36 | 178 | 22.5 | 46.7 | 0.00 | 0.00 | 0.00 | 33 | 1014.6 |
| 20260905211551 | 36 | 166 | 25.7 | 41.8 | 0.00 | 0.00 | 0.00 | 33 | 1014.7 |
| 20260905211024 | 36 | 205 | 20.9 | 30.6 | 0.00 | 0.00 | 0.00 | 34 | 1014.8 |
| 20260905210523 | 36 | 123 | 19.3 | 30.6 | 0.00 | 0.00 | 0.00 | 34 | 1015.0 |
| 20260905210057 | 36 | 118 | 20.9 | 32.2 | 0.00 | 0.00 | 0.00 | 35 | 1015.0 |
| 20260905205528 | 35 | 169 | 17.7 | 32.2 | 0.00 | 0.00 | 0.00 | 35 | 1015.2 |
| 20260905205023 | 35 | 148 | 22.5 | 30.6 | 0.00 | 0.00 | 0.00 | 35 | 1015.3 |
| 20260905204555 | 35 | 153 | 16.1 | 29.0 | 0.00 | 0.00 | 0.00 | 35 | 1015.5 |
| 20260905204024 | 35 | 146 | 17.7 | 29.0 | 0.00 | 0.00 | 0.00 | 36 | 1015.6 |
| 20260905203529 | 35 | 166 | 17.7 | 32.2 | 0.00 | 0.00 | 0.00 | 35 | 1015.6 |
| 20260905203106 | 35 | 165 | 19.3 | 32.2 | 0.00 | 0.00 | 0.00 | 35 | 1015.7 |